Total_Precipitation_Accumulation
1.47 1.84 2.37 3.08 3.52 3.70 3.78 3.92 3.91 3.97 3.98 3.90 3.89 4.08 4.23 4.25 4.24 4.38 4.42 4.24 4.13 4.21 4.45 4.48 4.41 4.13 3.85 3.64 3.57 3.51 3.30 3.03 2.87 2.85 2.68 2.38 2.13 2.08 1.98 1.92 1.89 1.72 1.65
1.38 1.85 2.33 2.82 3.13 3.45 3.62 3.76 3.77 4.00 4.25 4.60 5.06 5.32 5.44 5.34 5.16 5.07 4.99 4.87 4.75 4.78 4.82 4.82 4.52 4.22 4.05 3.79 3.53 3.45 3.29 3.04 2.96 2.92 2.95 2.61 2.37 2.03 1.78 1.83 1.80 1.71 1.67
1.41 1.80 2.06 2.45 2.73 3.05 3.33 3.54 3.82 4.29 4.81 5.46 6.23 6.52 6.26 5.87 5.65 5.33 5.27 5.06 4.82 4.78 4.80 4.52 4.25 4.05 3.88 3.70 3.50 3.45 3.36 3.08 2.97 2.99 3.15 2.87 2.55 2.25 2.02 1.81 1.71 1.72 1.73
1.45 1.65 1.91 2.19 2.39 2.76 3.21 3.63 4.10 4.72 5.36 5.92 6.38 6.57 6.44 6.17 5.90 5.45 5.07 4.68 4.34 4.15 4.04 3.92 3.68 3.56 3.44 3.29 3.12 3.14 3.12 3.00 2.78 2.72 2.61 2.53 2.39 2.34 2.15 1.92 1.75 1.72 1.75
1.35 1.49 1.70 1.97 2.29 2.70 3.18 3.67 4.14 4.80 5.30 5.80 6.16 6.34 6.34 6.22 5.84 5.16 4.54 4.13 3.79 3.53 3.26 3.04 2.93 2.92 2.87 2.67 2.48 2.48 2.48 2.47 2.39 2.34 2.23 2.20 2.15 2.11 2.02 1.94 1.87 1.80 1.68
1.50 1.51 1.61 1.79 2.23 2.63 3.11 3.46 3.80 4.48 5.17 5.65 6.00 6.25 6.20 5.96 5.33 4.64 4.10 3.75 3.45 3.17 2.90 2.75 2.57 2.49 2.38 2.21 2.06 1.99 1.98 2.02 2.03 2.06 2.05 1.93 1.88 1.87 1.91 1.82 1.74 1.72 1.63
1.44 1.47 1.68 1.81 2.28 2.67 2.95 3.20 3.45 3.84 4.35 4.79 5.08 5.26 5.31 5.10 4.67 4.25 3.78 3.41 3.16 2.88 2.56 2.26 2.09 2.00 1.93 1.86 1.82 1.72 1.66 1.71 1.74 1.70 1.69 1.69 1.65 1.68 1.78 1.84 1.74 1.66 1.57
1.39 1.41 1.65 1.87 2.01 2.23 2.48 2.77 3.01 3.27 3.52 3.72 3.92 3.89 3.89 3.87 3.67 3.34 2.91 2.60 2.34 2.18 2.01 1.80 1.69 1.65 1.66 1.62 1.58 1.48 1.39 1.43 1.54 1.58 1.64 1.62 1.59 1.68 1.73 1.80 1.89 1.89 1.72
1.36 1.45 1.63 1.76 1.82 1.94 2.15 2.32 2.41 2.60 2.67 2.63 2.61 2.66 2.68 2.67 2.58 2.45 2.19 1.87 1.63 1.50 1.44 1.40 1.37 1.26 1.28 1.33 1.33 1.29 1.28 1.33 1.33 1.37 1.46 1.51 1.54 1.63 1.63 1.69 1.81 2.00 1.97
1.30 1.41 1.54 1.69 1.78 1.79 1.97 2.06 1.99 2.00 2.05 2.08 2.01 1.94 1.97 2.00 1.99 1.92 1.76 1.57 1.39 1.26 1.17 1.13 1.09 0.99 0.96 1.01 1.09 1.11 1.18 1.28 1.25 1.23 1.27 1.31 1.37 1.56 1.66 1.72 1.81 1.97 2.04
1.34 1.46 1.46 1.47 1.49 1.52 1.56 1.63 1.63 1.64 1.61 1.60 1.62 1.60 1.55 1.51 1.51 1.55 1.49 1.35 1.25 1.12 1.01 0.93 0.93 0.93 0.87 0.85 0.92 0.95 1.00 1.11 1.15 1.10 1.12 1.17 1.25 1.37 1.43 1.56 1.68 1.88 2.05
1.46 1.50 1.44 1.34 1.35 1.45 1.46 1.43 1.41 1.38 1.38 1.41 1.43 1.47 1.33 1.25 1.26 1.25 1.22 1.14 1.12 1.08 1.01 0.96 0.94 0.87 0.81 0.82 0.83 0.83 0.82 0.89 0.95 0.98 1.03 0.98 1.03 1.16 1.26 1.39 1.49 1.63 1.79
1.65 1.67 1.56 1.38 1.33 1.37 1.37 1.23 1.17 1.18 1.12 1.14 1.23 1.31 1.21 1.12 1.11 1.07 1.05 1.07 1.06 1.04 0.99 0.95 0.88 0.81 0.79 0.81 0.81 0.77 0.77 0.75 0.77 0.86 0.94 0.97 1.06 1.14 1.24 1.38 1.42 1.51 1.56
1.62 1.67 1.61 1.42 1.41 1.33 1.28 1.11 1.06 1.07 1.04 1.00 1.01 1.07 1.09 1.06 1.02 1.01 1.00 0.94 0.91 0.90 0.85 0.79 0.77 0.76 0.73 0.68 0.66 0.66 0.69 0.73 0.74 0.76 0.81 0.88 1.02 1.13 1.27 1.33 1.41 1.54 1.65
1.65 1.74 1.65 1.42 1.42 1.41 1.35 1.15 1.04 1.02 1.01 1.02 1.01 1.00 1.00 0.95 0.95 0.98 0.95 0.84 0.81 0.74 0.70 0.69 0.67 0.67 0.64 0.58 0.59 0.64 0.65 0.75 0.80 0.82 0.80 0.77 0.85 1.00 1.10 1.15 1.34 1.61 1.78
1.68 1.64 1.52 1.44 1.44 1.43 1.37 1.21 1.06 0.99 0.99 1.08 1.10 1.06 1.05 0.99 0.94 0.94 0.92 0.84 0.83 0.77 0.69 0.71 0.67 0.61 0.51 0.53 0.55 0.57 0.65 0.74 0.79 0.87 0.85 0.73 0.71 0.75 0.81 0.88 1.02 1.27 1.54
1.86 1.78 1.63 1.54 1.59 1.52 1.37 1.28 1.13 1.06 1.05 1.07 1.03 1.07 1.08 0.99 0.90 0.85 0.93 0.91 0.89 0.80 0.73 0.72 0.68 0.62 0.53 0.49 0.47 0.48 0.56 0.69 0.79 0.87 0.88 0.73 0.63 0.75 0.85 0.85 0.84 0.92 1.12
1.87 1.77 1.67 1.64 1.61 1.55 1.47 1.38 1.20 1.06 1.02 1.01 0.96 0.96 0.98 0.98 0.91 0.87 0.89 0.88 0.88 0.87 0.78 0.72 0.72 0.72 0.53 0.48 0.47 0.48 0.58 0.71 0.75 0.77 0.82 0.87 0.87 0.77 0.78 0.83 0.96 1.13 1.24
1.72 1.67 1.62 1.64 1.56 1.47 1.41 1.33 1.19 1.04 0.92 0.89 0.89 0.84 0.80 0.79 0.77 0.75 0.78 0.86 0.88 0.88 0.77 0.71 0.76 0.74 0.57 0.48 0.46 0.49 0.60 0.70 0.71 0.64 0.63 0.67 0.73 0.70 0.76 0.92 1.17 1.38 1.55
1.48 1.44 1.40 1.42 1.43 1.34 1.28 1.27 1.21 1.06 0.87 0.74 0.68 0.67 0.69 0.69 0.71 0.73 0.77 0.75 0.82 0.84 0.71 0.64 0.66 0.61 0.51 0.45 0.43 0.49 0.56 0.66 0.67 0.69 0.66 0.69 0.69 0.70 0.85 1.03 1.35 1.57 1.69
1.36 1.27 1.21 1.21 1.20 1.13 1.05 1.05 1.03 0.92 0.69 0.57 0.53 0.57 0.58 0.59 0.59 0.68 0.71 0.70 0.70 0.75 0.72 0.65 0.60 0.54 0.43 0.39 0.41 0.43 0.45 0.53 0.62 0.68 0.75 0.80 0.80 0.75 0.86 1.05 1.29 1.51 1.59
1.30 1.18 1.11 1.02 0.96 0.88 0.93 0.93 0.80 0.64 0.54 0.50 0.49 0.50 0.49 0.42 0.44 0.60 0.62 0.62 0.69 0.67 0.66 0.70 0.66 0.53 0.43 0.33 0.29 0.30 0.34 0.41 0.61 0.72 0.76 0.79 0.81 0.81 0.94 1.07 1.30 1.51 1.66
1.13 0.99 0.89 0.80 0.74 0.78 0.83 0.78 0.63 0.49 0.45 0.50 0.54 0.49 0.43 0.41 0.40 0.47 0.50 0.51 0.59 0.57 0.53 0.56 0.55 0.47 0.40 0.29 0.20 0.20 0.25 0.36 0.49 0.64 0.79 0.80 0.77 0.90 1.18 1.36 1.50 1.67 1.75
0.94 0.82 0.78 0.74 0.73 0.72 0.64 0.59 0.44 0.40 0.44 0.53 0.55 0.51 0.48 0.45 0.37 0.36 0.34 0.35 0.38 0.41 0.47 0.49 0.47 0.44 0.40 0.28 0.22 0.24 0.27 0.34 0.43 0.56 0.73 0.88 0.96 1.10 1.37 1.60 1.73 1.79 1.72
0.76 0.68 0.72 0.70 0.66 0.58 0.52 0.45 0.38 0.38 0.47 0.50 0.47 0.45 0.42 0.40 0.36 0.29 0.24 0.23 0.24 0.26 0.33 0.37 0.39 0.39 0.33 0.24 0.24 0.26 0.28 0.33 0.40 0.49 0.70 0.91 1.04 1.24 1.45 1.58 1.59 1.56 1.48
0.60 0.57 0.59 0.56 0.50 0.45 0.44 0.37 0.31 0.31 0.40 0.44 0.44 0.38 0.36 0.33 0.28 0.27 0.25 0.19 0.19 0.20 0.22 0.24 0.25 0.26 0.26 0.22 0.20 0.23 0.29 0.36 0.44 0.53 0.77 0.97 1.09 1.25 1.36 1.46 1.44 1.36 1.29